Stündliche Wetter Barmaky

Heute, 29 Oktober, Donnerstag

Zeit Temperatur Niederschläge Wind Luftdruck Luftfeuchtigkeit
00:00 +10°C° 0 mm 2 m/S 743 mmHg 92%
01:00 +9°C° 0 mm 2 m/S 743 mmHg 92%
02:00 +9°C° 0 mm 2 m/S 743 mmHg 92%
03:00 +9°C° 0 mm 2 m/S 742 mmHg 92%
04:00 +9°C° 0 mm 2 m/S 742 mmHg 92%
05:00 +8°C° 0 mm 2 m/S 742 mmHg 92%
06:00 +8°C° 0 mm 2 m/S 742 mmHg 92%
07:00 +8°C° 0 mm 2 m/S 742 mmHg 93%
08:00 +8°C° 0 mm 2 m/S 742 mmHg 93%
09:00 +10°C° 0 mm 2 m/S 742 mmHg 86%
10:00 +12°C° 0 mm 2 m/S 742 mmHg 80%
11:00 +14°C° 0 mm 2 m/S 742 mmHg 74%
12:00 +14°C° 0 mm 2 m/S 742 mmHg 73%
13:00 +14°C° 0 mm 2 m/S 741 mmHg 72%
14:00 +14°C° 0 mm 3 m/S 741 mmHg 71%
15:00 +14°C° 0 mm 2 m/S 741 mmHg 75%
16:00 +13°C° 0 mm 2 m/S 741 mmHg 79%
17:00 +12°C° 0 mm 2 m/S 741 mmHg 84%
18:00 +10°C° 0 mm 2 m/S 741 mmHg 85%
19:00 +10°C° 0 mm 2 m/S 741 mmHg 87%
20:00 +9°C° 0 mm 2 m/S 741 mmHg 88%
21:00 +9°C° 0 mm 2 m/S 741 mmHg 88%
22:00 +9°C° 0 mm 2 m/S 741 mmHg 87%
23:00 +10°C° 0 mm 1 m/S 741 mmHg 87%

Morgen, 30 Oktober, Freitag

Zeit Temperatur Niederschläge Wind Luftdruck Luftfeuchtigkeit
00:00 +9°C° 0 mm 2 m/S 741 mmHg 87%
01:00 +9°C° 0 mm 2 m/S 741 mmHg 88%
02:00 +9°C° 0 mm 3 m/S 741 mmHg 89%
03:00 +9°C° 0.1 mm 3 m/S 742 mmHg 89%
04:00 +8°C° 0.1 mm 4 m/S 742 mmHg 90%
05:00 +8°C° 0.1 mm 4 m/S 742 mmHg 90%
06:00 +8°C° 0.1 mm 4 m/S 742 mmHg 87%
07:00 +8°C° 0.1 mm 4 m/S 743 mmHg 84%
08:00 +7°C° 0.1 mm 5 m/S 743 mmHg 81%
09:00 +8°C° 0 mm 5 m/S 744 mmHg 77%
10:00 +8°C° 0 mm 5 m/S 744 mmHg 73%
11:00 +9°C° 0 mm 5 m/S 744 mmHg 69%
12:00 +9°C° 0 mm 5 m/S 744 mmHg 69%
13:00 +9°C° 0 mm 5 m/S 744 mmHg 69%
14:00 +9°C° 0 mm 5 m/S 744 mmHg 68%
15:00 +10°C° 0 mm 4 m/S 744 mmHg 69%
16:00 +8°C° 0 mm 4 m/S 744 mmHg 70%
17:00 +9°C° 0 mm 3 m/S 744 mmHg 72%
18:00 +8°C° 0 mm 3 m/S 744 mmHg 76%
19:00 +7°C° 0 mm 2 m/S 744 mmHg 80%
20:00 +6°C° 0 mm 2 m/S 744 mmHg 84%
21:00 +6°C° 0 mm 2 m/S 744 mmHg 85%
22:00 +7°C° 0 mm 1 m/S 744 mmHg 86%
23:00 +7°C° 0 mm 1 m/S 744 mmHg 87%

übermorgen, 31 Oktober, Samstag

Zeit Temperatur Niederschläge Wind Luftdruck Luftfeuchtigkeit
00:00 +7°C° 0 mm 1 m/S 743 mmHg 86%
01:00 +7°C° 0 mm 1 m/S 743 mmHg 86%
02:00 +7°C° 0 mm 1 m/S 743 mmHg 85%
03:00 +7°C° 0.2 mm 1 m/S 743 mmHg 87%
04:00 +7°C° 0.2 mm 1 m/S 743 mmHg 89%
05:00 +7°C° 0.2 mm 1 m/S 743 mmHg 90%
06:00 +7°C° 0 mm 1 m/S 743 mmHg 91%
07:00 +7°C° 0 mm 1 m/S 743 mmHg 92%
08:00 +6°C° 0 mm 1 m/S 744 mmHg 93%
09:00 +6°C° 0 mm 2 m/S 744 mmHg 86%
10:00 +8°C° 0 mm 2 m/S 744 mmHg 80%
11:00 +9°C° 0 mm 3 m/S 745 mmHg 73%
12:00 +9°C° 0.1 mm 3 m/S 745 mmHg 73%
13:00 +9°C° 0.1 mm 3 m/S 745 mmHg 73%
14:00 +9°C° 0.1 mm 3 m/S 745 mmHg 73%
15:00 +8°C° 0.3 mm 3 m/S 745 mmHg 78%
16:00 +8°C° 0.3 mm 2 m/S 745 mmHg 83%
17:00 +7°C° 0.3 mm 2 m/S 745 mmHg 88%
18:00 +6°C° 0 mm 2 m/S 745 mmHg 89%
19:00 +6°C° 0 mm 2 m/S 746 mmHg 91%
20:00 +6°C° 0 mm 2 m/S 746 mmHg 93%
21:00 +5°C° 0 mm 2 m/S 746 mmHg 93%
22:00 +5°C° 0 mm 2 m/S 746 mmHg 94%
23:00 +4°C° 0 mm 2 m/S 746 mmHg 95%

1 November, Sonntag

Zeit Temperatur Niederschläge Wind Luftdruck Luftfeuchtigkeit
00:00 +4°C° 0 mm 2 m/S 747 mmHg 95%
01:00 +4°C° 0 mm 2 m/S 747 mmHg 95%
02:00 +4°C° 0 mm 2 m/S 747 mmHg 96%
03:00 +4°C° 0 mm 2 m/S 747 mmHg 96%
04:00 +4°C° 0 mm 2 m/S 747 mmHg 96%
05:00 +3°C° 0 mm 2 m/S 747 mmHg 96%
06:00 +3°C° 0 mm 3 m/S 747 mmHg 94%
07:00 +3°C° 0 mm 3 m/S 747 mmHg 93%
08:00 +4°C° 0 mm 4 m/S 747 mmHg 91%
09:00 +5°C° 0 mm 4 m/S 747 mmHg 89%
10:00 +6°C° 0 mm 4 m/S 747 mmHg 87%
11:00 +6°C° 0 mm 4 m/S 747 mmHg 85%
12:00 +7°C° 0 mm 4 m/S 747 mmHg 84%
13:00 +7°C° 0 mm 4 m/S 747 mmHg 82%
14:00 +8°C° 0 mm 4 m/S 747 mmHg 80%
15:00 +7°C° 0 mm 4 m/S 747 mmHg 81%
16:00 +7°C° 0 mm 4 m/S 747 mmHg 83%
17:00 +8°C° 0 mm 3 m/S 746 mmHg 84%
18:00 +8°C° 0 mm 3 m/S 746 mmHg 84%
19:00 +7°C° 0 mm 3 m/S 746 mmHg 84%
20:00 +7°C° 0 mm 3 m/S 746 mmHg 84%
21:00 +7°C° 0 mm 3 m/S 746 mmHg 84%
22:00 +7°C° 0 mm 3 m/S 746 mmHg 84%
23:00 +7°C° 0 mm 3 m/S 745 mmHg 84%

2 November, Montag

Zeit Temperatur Niederschläge Wind Luftdruck Luftfeuchtigkeit
00:00 +7°C° 0 mm 3 m/S 745 mmHg 85%
01:00 +5°C° 0 mm 3 m/S 745 mmHg 86%
02:00 +5°C° 0 mm 3 m/S 745 mmHg 87%
03:00 +5°C° 0 mm 4 m/S 745 mmHg 87%
04:00 +5°C° 0 mm 4 m/S 745 mmHg 87%
05:00 +5°C° 0 mm 4 m/S 744 mmHg 87%
06:00 +5°C° 0 mm 4 m/S 744 mmHg 88%
07:00 +5°C° 0 mm 4 m/S 745 mmHg 89%
08:00 +5°C° 0 mm 3 m/S 745 mmHg 89%
09:00 +5°C° 0 mm 3 m/S 745 mmHg 89%
10:00 +5°C° 0 mm 3 m/S 745 mmHg 89%
11:00 +6°C° 0 mm 4 m/S 745 mmHg 88%
12:00 +7°C° 0 mm 3 m/S 745 mmHg 87%
13:00 +8°C° 0 mm 3 m/S 745 mmHg 87%
14:00 +8°C° 0 mm 3 m/S 745 mmHg 86%
15:00 +8°C° 0 mm 3 m/S 746 mmHg 88%
16:00 +8°C° 0 mm 2 m/S 746 mmHg 89%
17:00 +9°C° 0 mm 1 m/S 746 mmHg 91%
18:00 +8°C° 0 mm 2 m/S 746 mmHg 91%
19:00 +8°C° 0 mm 2 m/S 746 mmHg 91%
20:00 +8°C° 0 mm 2 m/S 746 mmHg 92%
21:00 +7°C° 0 mm 2 m/S 746 mmHg 93%
22:00 +7°C° 0 mm 2 m/S 746 mmHg 94%
23:00 +6°C° 0 mm 2 m/S 746 mmHg 95%

3 November, Dienstag

Zeit Temperatur Niederschläge Wind Luftdruck Luftfeuchtigkeit
00:00 +6°C° 0 mm 2 m/S 747 mmHg 96%
01:00 +6°C° 0 mm 2 m/S 747 mmHg 96%
02:00 +5°C° 0 mm 2 m/S 747 mmHg 97%
03:00 +5°C° 0 mm 2 m/S 747 mmHg 97%
04:00 +5°C° 0 mm 2 m/S 747 mmHg 97%
05:00 +5°C° 0 mm 2 m/S 747 mmHg 97%
06:00 +5°C° 0 mm 2 m/S 748 mmHg 96%
07:00 +6°C° 0 mm 2 m/S 748 mmHg 96%
08:00 +6°C° 0 mm 2 m/S 748 mmHg 96%
09:00 +7°C° 0 mm 3 m/S 748 mmHg 91%
10:00 +8°C° 0 mm 3 m/S 749 mmHg 86%
11:00 +9°C° 0 mm 3 m/S 749 mmHg 82%
12:00 +10°C° 0 mm 3 m/S 749 mmHg 79%
13:00 +10°C° 0 mm 3 m/S 749 mmHg 76%
14:00 +10°C° 0 mm 3 m/S 749 mmHg 73%
15:00 +10°C° 0 mm 3 m/S 749 mmHg 75%
16:00 +10°C° 0 mm 2 m/S 749 mmHg 77%
17:00 +9°C° 0 mm 2 m/S 749 mmHg 79%
18:00 +9°C° 0 mm 2 m/S 750 mmHg 81%
19:00 +9°C° 0 mm 3 m/S 750 mmHg 83%
20:00 +8°C° 0 mm 3 m/S 750 mmHg 85%
21:00 +8°C° 0 mm 3 m/S 750 mmHg 88%
22:00 +8°C° 0 mm 3 m/S 750 mmHg 90%
23:00 +7°C° 0 mm 3 m/S 750 mmHg 93%
Mehr zeigen